Theta_e
309 313 318 319 320 321 321 321 321 320 320 320 319 318 317 316 316 316 316 317 319 321 320 320 320 320 320 320 319 318 317 318 318 318 318 319 321 322 323 323 322 321
309 311 315 317 319 320 320 320 320 320 319 319 318 315 314 316 316 315 316 316 319 321 320 320 321 320 320 319 319 318 317 317 317 316 316 316 319 321 322 322 321 321
309 311 315 317 318 319 319 319 319 319 318 317 316 313 314 317 316 316 316 315 318 320 320 320 320 319 319 319 318 318 317 317 317 317 317 315 316 319 321 321 320 320
308 309 313 317 319 319 319 318 317 316 316 316 314 313 316 318 316 316 317 315 318 320 319 319 319 318 318 317 317 316 316 316 315 315 315 315 315 317 318 319 319 319
307 309 312 316 318 319 318 317 316 316 316 315 312 313 317 318 316 316 317 316 317 319 318 318 318 318 317 317 316 316 315 315 314 313 313 314 315 315 315 316 316 316
307 310 312 315 317 318 318 317 317 316 316 314 312 313 317 317 316 317 316 316 316 316 317 317 317 317 316 316 315 314 313 313 312 311 312 313 313 314 314 312 312 313
307 310 313 315 316 318 318 317 316 316 316 315 312 313 316 317 316 316 316 316 315 315 316 316 316 316 315 315 314 312 311 311 311 310 310 310 310 310 310 309 309 310
308 310 313 315 316 317 317 317 316 315 316 315 313 313 315 316 315 315 315 315 315 315 316 316 315 315 314 314 312 309 308 309 308 308 308 308 308 307 307 307 307 308
308 310 313 315 316 316 316 316 316 316 315 314 313 312 314 315 314 313 314 315 314 315 315 314 314 313 312 311 310 307 306 306 305 305 305 305 305 305 305 305 305 306
309 311 312 314 315 315 316 316 315 315 313 312 311 311 314 314 312 311 313 314 314 314 313 314 313 310 307 307 306 304 303 303 302 302 301 301 301 301 302 302 303 303
310 311 311 312 314 314 314 314 314 313 311 311 310 311 313 313 311 311 314 314 313 313 313 312 309 305 302 302 301 300 300 300 301 300 299 299 299 299 300 300 300 301
310 311 311 311 312 312 312 312 312 312 312 311 310 311 311 311 311 312 313 313 313 312 311 309 305 303 302 300 299 298 299 299 300 299 298 299 298 298 298 298 299 299
310 311 311 311 311 311 311 311 311 311 311 310 310 310 309 309 310 311 312 312 312 311 309 307 304 303 302 301 299 299 299 299 299 298 298 298 298 297 297 297 297 297
311 311 311 311 311 311 311 311 310 310 310 311 310 308 308 309 309 310 310 310 311 310 310 308 305 303 302 301 300 299 299 299 298 297 298 297 297 297 297 297 297 297
312 311 311 311 311 311 311 310 309 309 309 311 309 305 307 310 310 310 311 310 310 310 310 308 305 303 302 302 301 300 300 300 298 297 297 297 297 297 296 296 297 296
313 312 311 311 311 311 311 310 309 309 309 310 308 304 306 310 309 309 311 311 310 310 309 306 303 303 302 302 302 302 301 300 298 296 296 296 296 296 296 296 296 296
313 313 311 311 311 310 311 310 309 309 309 310 310 306 307 310 309 307 308 308 309 308 305 302 301 302 302 302 302 302 301 300 299 297 295 296 296 296 296 296 296 296
315 315 313 311 311 311 311 311 310 309 309 311 311 307 306 309 309 307 306 306 307 305 302 299 299 300 301 301 302 302 301 300 300 298 296 296 295 295 296 296 295 295
318 317 315 312 311 311 311 311 310 309 308 310 310 305 304 306 307 305 305 305 305 304 300 298 298 299 300 301 301 302 302 300 299 298 298 296 295 295 295 295 295 295
319 319 318 315 312 311 311 311 310 309 307 308 307 303 302 304 304 304 304 304 305 304 301 298 298 298 299 300 301 302 302 300 299 299 299 298 296 295 295 295 295 294
320 320 320 319 314 311 311 311 310 309 308 307 305 302 300 302 302 303 303 302 304 304 301 298 298 298 298 299 300 301 301 300 299 299 299 299 298 297 296 295 295 294
321 321 321 321 318 313 311 311 310 309 308 307 305 301 301 302 302 302 302 302 303 303 300 299 299 298 298 297 298 299 300 300 300 300 300 299 298 297 296 296 296 295
321 321 321 322 320 316 313 311 310 310 309 308 305 302 301 301 301 302 302 302 302 302 300 299 298 298 298 297 297 298 299 299 300 300 299 298 297 296 296 296 296 295
321 321 322 322 321 319 316 313 311 311 310 309 307 304 301 301 301 301 302 301 301 301 300 299 299 298 298 298 297 297 297 298 298 298 298 297 296 295 295 295 295 295
321 321 322 322 322 321 319 316 313 311 311 310 308 306 303 301 301 301 302 302 301 301 301 300 299 299 298 298 297 297 296 296 296 297 297 297 296 295 295 295 295 294
321 322 322 322 322 322 321 319 316 313 312 311 309 307 305 303 301 301 301 302 301 301 301 300 299 299 298 298 298 297 297 297 296 296 297 298 297 296 295 295 294 294
Wind_Speed
10 13 14 15 14 13 13 13 14 14 14 13 10 9 9 9 8 3 0 2 4 3 2 1 1 2 2 1 1 2 2 1 1 0 1 3 5 6 5 4 4 4
9 13 14 14 14 13 12 12 13 13 13 12 10 9 9 10 8 4 1 1 3 3 2 2 2 2 3 3 2 2 2 2 2 1 1 2 6 8 7 5 5 5
10 12 12 13 13 13 13 12 11 12 12 11 9 8 10 10 7 5 1 1 2 3 3 3 3 3 3 3 3 4 4 4 4 3 3 2 6 9 9 7 6 6
11 12 12 12 12 13 13 12 10 10 10 10 8 7 11 10 7 5 2 1 2 4 5 4 4 4 4 3 4 6 6 6 4 3 3 4 6 8 9 9 8 7
11 12 11 11 12 12 11 10 10 9 9 8 6 9 12 10 7 5 3 1 3 6 6 5 5 5 4 4 5 6 6 6 3 2 5 5 5 6 7 7 8 8
11 11 11 10 11 11 11 11 11 11 10 7 4 10 12 10 8 5 4 3 4 7 7 6 6 5 5 5 6 5 5 5 3 4 5 4 4 4 4 5 6 7
11 11 10 10 10 11 12 13 13 12 11 9 6 11 12 10 9 6 5 5 5 6 6 5 6 6 6 5 5 5 4 3 2 2 3 3 2 2 2 3 5 7
12 11 10 10 11 12 14 14 14 14 13 12 9 11 12 12 9 7 7 8 7 7 7 7 7 7 7 6 4 4 4 3 2 1 1 2 2 2 2 4 4 6
14 11 10 10 12 13 14 15 15 16 16 15 12 11 13 13 9 7 9 9 8 8 8 7 8 8 8 6 4 3 3 3 3 3 2 2 2 3 4 4 4 5
15 12 9 10 12 14 15 15 16 16 16 15 11 11 13 12 9 8 11 10 9 8 8 8 8 8 8 7 5 3 2 2 2 3 3 3 4 4 5 5 5 5
16 12 9 10 12 14 15 16 16 14 13 12 10 10 12 11 9 11 12 11 9 8 8 9 8 7 7 7 6 4 2 0 1 2 3 4 5 5 5 5 5 6
17 13 10 10 12 13 14 15 15 13 12 11 8 9 12 11 11 12 11 10 10 9 9 8 6 5 5 5 5 3 1 1 2 3 5 5 6 7 7 6 6 7
18 14 12 11 11 12 13 13 14 13 12 11 7 8 12 14 13 11 10 10 11 10 8 7 5 4 4 4 4 2 1 2 3 4 5 6 7 7 7 7 7 7
18 15 14 12 12 12 12 12 13 13 11 10 7 8 14 15 14 12 11 11 11 10 8 7 7 6 4 3 3 2 1 3 4 4 4 5 6 7 6 6 6 6
19 17 16 14 13 13 13 13 12 12 10 9 7 9 16 16 13 12 11 11 12 11 10 9 8 7 5 3 2 1 1 3 4 5 4 4 5 5 5 5 5 5
22 19 18 17 15 14 14 13 12 12 11 9 8 10 16 16 13 12 12 13 13 12 11 10 9 8 7 5 3 2 1 1 4 5 5 4 3 3 4 4 4 5
23 22 20 19 16 15 15 14 13 13 12 10 10 11 14 15 14 13 13 12 12 12 11 10 9 9 8 6 5 4 3 1 3 4 5 4 3 2 2 3 4 5
24 23 22 20 18 17 16 16 15 14 13 12 13 14 15 15 14 14 12 10 9 9 10 9 9 9 9 8 7 6 4 3 2 4 5 4 3 3 2 3 4 5
24 25 24 22 20 18 17 17 16 16 15 14 14 15 17 16 15 14 13 10 8 8 8 8 9 9 10 9 8 7 6 4 3 3 4 5 5 4 2 3 4 4
24 25 24 23 21 20 19 19 18 17 17 15 15 17 19 17 16 15 13 12 9 8 9 9 9 9 10 10 10 9 7 6 4 3 2 4 5 4 3 2 3 3
27 26 25 24 23 22 21 20 19 18 18 17 16 17 19 18 17 16 14 12 11 10 10 10 9 9 10 10 11 10 9 7 6 5 4 2 2 3 3 2 2 3
30 28 27 25 25 24 22 21 21 19 18 18 17 17 18 19 18 17 15 13 11 11 11 11 10 10 10 11 11 11 10 9 8 7 7 5 3 3 2 2 2 3
33 30 29 26 26 26 25 23 22 20 19 19 18 18 19 19 19 18 16 13 12 12 12 12 11 11 11 11 12 12 11 11 10 9 9 8 5 4 3 2 2 2
35 33 31 28 27 26 26 24 22 21 20 19 19 19 20 20 19 18 17 15 12 12 13 12 12 12 11 11 12 12 12 12 11 11 10 9 7 5 4 4 4 3
36 34 32 30 28 27 26 25 23 22 21 19 19 19 19 20 21 19 18 16 13 12 13 13 13 13 12 12 12 12 13 12 12 11 10 8 7 6 6 6 6 6
37 36 34 32 29 27 26 25 24 23 22 21 19 19 19 20 22 21 19 18 15 14 14 14 14 14 13 13 13 12 12 12 12 11 9 8 7 6 7 8 8 8
Wind_Direction
212 209 216 224 229 237 246 252 254 254 258 260 261 270 263 245 240 231 19 265 222 202 204 171 230 272 295 318 340 354 356 320 292 320 134 187 190 188 182 176 169 168
218 212 217 228 235 241 250 253 253 257 262 262 269 274 248 226 224 201 123 296 236 216 205 183 210 252 279 294 318 337 334 322 307 320 355 193 187 189 187 184 186 187
229 222 221 229 237 246 255 256 256 262 266 269 279 264 223 210 214 200 157 334 259 223 205 198 212 221 247 280 300 307 304 300 296 292 285 230 185 188 189 187 190 190
230 230 227 230 239 247 252 253 257 259 262 276 279 227 203 206 211 200 193 326 242 212 206 209 221 225 236 266 292 300 297 296 300 285 248 217 182 180 185 188 192 192
226 229 231 238 244 246 246 246 248 246 251 274 261 198 196 207 207 205 215 218 216 219 219 225 234 243 255 274 294 297 295 292 282 196 205 205 181 171 174 186 194 191
224 224 230 242 245 243 245 244 245 245 251 273 241 190 195 204 200 209 220 207 223 230 226 228 239 255 272 290 296 285 277 276 244 174 189 204 193 176 158 174 191 186
226 225 228 241 246 247 249 247 251 252 257 276 244 196 196 199 195 205 223 222 229 234 231 239 254 270 283 297 293 263 244 252 239 155 171 191 192 188 145 150 178 181
227 227 230 239 248 253 252 251 255 256 261 274 255 210 201 205 204 208 224 229 228 231 237 250 266 280 289 295 276 240 227 227 226 196 182 175 163 180 160 144 162 179
225 227 230 239 248 255 254 251 254 257 262 268 255 218 204 213 220 210 210 220 224 227 232 245 266 279 282 280 263 234 228 220 216 222 218 194 181 183 171 153 153 171
225 226 230 240 250 256 257 256 257 258 262 260 243 213 208 219 222 196 194 211 222 224 232 247 265 271 264 264 268 265 246 225 213 214 204 191 184 181 174 163 157 162
226 224 226 239 251 257 262 264 264 262 260 251 225 207 213 215 197 185 194 213 223 231 249 263 268 260 246 250 263 271 277 323 129 162 161 156 158 158 158 156 155 154
226 223 221 233 249 258 265 268 268 266 260 246 219 207 211 198 181 188 204 218 230 245 264 279 281 257 247 252 258 268 307 34 96 122 131 132 134 134 133 132 137 141
228 225 221 228 243 255 263 266 266 264 255 241 224 209 204 192 186 197 208 218 237 256 272 290 296 277 271 272 260 263 356 76 110 119 124 126 125 123 123 124 127 132
229 228 224 226 239 249 256 258 257 256 242 231 232 211 199 198 197 203 213 223 239 256 271 286 289 281 282 286 268 252 106 110 124 126 126 130 128 121 118 121 125 131
229 231 227 226 235 244 251 253 252 250 237 231 239 206 195 205 212 212 221 231 237 250 266 275 273 265 266 272 269 259 121 122 135 137 132 131 133 125 120 121 127 134
231 233 231 228 232 240 249 252 251 249 239 235 241 209 196 209 224 223 228 235 241 252 261 261 254 248 250 252 252 260 267 144 151 154 147 137 129 123 122 122 127 130
233 234 234 232 232 238 246 250 250 250 243 238 246 232 210 215 228 232 234 237 241 249 249 244 239 236 240 245 242 245 258 235 168 168 163 151 137 126 126 125 122 121
236 236 237 235 234 236 244 249 250 251 246 242 248 241 225 223 231 236 239 238 236 237 237 233 230 229 234 239 237 235 248 258 210 186 178 171 172 170 152 127 116 112
239 237 238 238 236 236 241 246 250 251 248 245 247 240 229 229 234 237 243 246 237 232 233 229 226 226 229 235 234 232 242 253 242 205 184 180 189 196 177 134 119 116
240 239 239 241 239 236 238 244 248 250 249 247 244 237 230 232 236 240 246 249 243 236 233 229 226 225 226 229 233 234 237 244 252 251 210 178 184 198 198 157 136 136
241 240 241 242 241 238 237 240 246 248 247 245 243 236 231 234 238 241 247 251 248 240 232 229 230 228 225 225 229 232 233 233 244 259 256 228 195 201 208 182 171 182
242 241 241 242 242 240 237 238 243 246 244 244 243 236 230 232 236 240 245 250 250 241 230 228 231 231 229 226 225 228 230 231 239 251 254 252 242 219 205 172 171 192
243 242 242 242 243 242 239 238 241 244 243 243 243 237 230 230 235 240 244 248 250 241 229 228 232 232 232 230 226 225 227 231 239 248 250 249 246 234 216 188 176 196
244 243 243 243 245 244 242 240 240 243 243 243 245 241 234 233 237 240 244 247 247 240 230 227 232 235 234 233 230 225 225 231 240 246 246 246 241 232 220 206 198 202
245 244 244 245 247 247 245 242 241 243 243 243 246 246 239 236 237 240 244 247 245 239 232 227 228 233 236 236 234 229 227 231 237 239 236 235 230 221 213 205 199 199
247 246 245 247 249 248 247 245 242 242 242 242 244 245 241 237 238 240 243 246 245 240 235 231 228 231 235 237 236 234 234 235 237 236 231 229 228 222 213 206 204 204